TimeCST,TemperatureF,Dew PointF,Humidity,Sea Level PressureIn,VisibilityMPH,Wind Direction,Wind SpeedMPH,Gust SpeedMPH,PrecipitationIn,Events,Conditions,WindDirDegrees,DateUTC
12:13 AM,24.8,23.0,93,30.10,7.0,SSW,3.5,-,N/A,,Overcast,200,2013-12-27 06:13:00
12:33 AM,24.8,23.0,93,30.09,7.0,South,5.8,-,N/A,,Overcast,190,2013-12-27 06:33:00
12:53 AM,24.8,23.0,93,30.08,7.0,South,5.8,-,N/A,,Overcast,190,2013-12-27 06:53:00
1:13 AM,24.8,24.8,100,30.07,7.0,SSW,9.2,-,N/A,,Overcast,210,2013-12-27 07:13:00
1:33 AM,24.8,24.8,100,30.07,10.0,SW,8.1,-,N/A,,Overcast,220,2013-12-27 07:33:00
1:53 AM,26.6,24.8,93,30.06,10.0,SSW,8.1,-,N/A,,Overcast,210,2013-12-27 07:53:00
2:13 AM,26.6,24.8,93,30.06,10.0,SSW,10.4,-,N/A,,Overcast,210,2013-12-27 08:13:00
2:33 AM,26.6,26.6,100,30.06,10.0,SSW,10.4,-,N/A,,Overcast,210,2013-12-27 08:33:00
2:53 AM,26.6,26.6,100,30.05,10.0,SSW,12.7,-,N/A,,Overcast,210,2013-12-27 08:53:00
3:13 AM,26.6,26.6,100,30.04,10.0,SSW,12.7,-,N/A,,Overcast,210,2013-12-27 09:13:00
3:33 AM,26.6,26.6,100,30.03,10.0,SSW,15.0,-,N/A,,Scattered Clouds,200,2013-12-27 09:33:00
3:53 AM,26.6,26.6,100,30.02,10.0,SSW,15.0,-,N/A,,Clear,200,2013-12-27 09:53:00
4:13 AM,26.6,26.6,100,30.01,10.0,SSW,15.0,-,N/A,,Clear,200,2013-12-27 10:13:00
4:33 AM,26.6,24.8,93,30.01,7.0,SSW,15.0,-,N/A,,Clear,200,2013-12-27 10:33:00
4:53 AM,24.8,24.8,100,30.02,7.0,SSW,12.7,-,N/A,,Clear,200,2013-12-27 10:53:00
5:13 AM,24.8,23.0,93,30.01,7.0,South,12.7,-,N/A,,Clear,190,2013-12-27 11:13:00
5:33 AM,23.0,21.2,93,29.99,7.0,South,13.8,-,N/A,,Clear,190,2013-12-27 11:33:00
5:53 AM,21.2,21.2,100,29.98,7.0,South,10.4,-,N/A,,Clear,190,2013-12-27 11:53:00
6:13 AM,21.2,21.2,100,29.97,7.0,South,10.4,-,N/A,,Clear,180,2013-12-27 12:13:00
6:33 AM,21.2,21.2,100,29.96,7.0,South,10.4,-,N/A,,Clear,190,2013-12-27 12:33:00
6:53 AM,21.2,21.2,100,29.94,7.0,South,12.7,-,N/A,,Clear,190,2013-12-27 12:53:00
7:13 AM,23.0,21.2,93,29.93,10.0,SSW,12.7,-,N/A,,Clear,200,2013-12-27 13:13:00
7:33 AM,24.8,21.2,86,29.93,10.0,SSW,11.5,-,N/A,,Clear,200,2013-12-27 13:33:00
7:53 AM,24.8,24.8,100,29.92,10.0,SSW,17.3,-,N/A,,Scattered Clouds,200,2013-12-27 13:53:00
8:13 AM,26.6,24.8,93,29.90,10.0,South,16.1,-,N/A,,Overcast,190,2013-12-27 14:13:00
8:33 AM,28.4,24.8,86,29.90,10.0,SSW,13.8,-,N/A,,Overcast,200,2013-12-27 14:33:00
8:53 AM,28.4,24.8,86,29.90,10.0,SSW,16.1,-,N/A,,Overcast,210,2013-12-27 14:53:00
9:13 AM,28.4,26.6,93,29.90,10.0,SSW,13.8,-,N/A,,Overcast,200,2013-12-27 15:13:00
9:34 AM,30.2,26.6,86,29.88,10.0,SSW,19.6,-,N/A,,Overcast,200,2013-12-27 15:34:00
9:53 AM,30.2,26.6,86,29.88,10.0,SSW,19.6,-,N/A,,Mostly Cloudy,210,2013-12-27 15:53:00
10:13 AM,30.2,26.6,86,29.89,10.0,SW,15.0,-,N/A,,Scattered Clouds,220,2013-12-27 16:13:00
10:33 AM,30.2,26.6,86,29.89,10.0,SW,15.0,-,N/A,,Clear,220,2013-12-27 16:33:00
10:53 AM,32.0,26.6,80,29.89,10.0,SW,13.8,-,N/A,,Clear,220,2013-12-27 16:53:00
11:13 AM,35.6,28.4,75,29.88,10.0,SW,16.1,-,N/A,,Clear,230,2013-12-27 17:13:00
11:33 AM,35.6,28.4,75,29.87,10.0,WSW,17.3,-,N/A,,Clear,240,2013-12-27 17:33:00
11:53 AM,35.6,28.4,75,29.87,10.0,WSW,17.3,-,N/A,,Clear,240,2013-12-27 17:53:00
12:13 PM,35.6,28.4,75,29.86,10.0,WSW,19.6,-,N/A,,Clear,250,2013-12-27 18:13:00
12:33 PM,37.4,28.4,70,29.87,10.0,West,17.3,-,N/A,,Clear,260,2013-12-27 18:33:00
12:53 PM,37.4,30.2,75,29.87,10.0,West,18.4,24.2,N/A,,Clear,260,2013-12-27 18:53:00
1:13 PM,39.2,30.2,70,29.87,10.0,West,19.6,23.0,N/A,,Clear,270,2013-12-27 19:13:00
1:33 PM,39.2,30.2,70,29.87,10.0,West,18.4,26.5,N/A,,Clear,280,2013-12-27 19:33:00
1:53 PM,39.2,30.2,70,29.87,10.0,West,18.4,26.5,N/A,,Clear,280,2013-12-27 19:53:00
2:13 PM,37.4,30.2,75,29.87,10.0,West,21.9,26.5,N/A,,Clear,280,2013-12-27 20:13:00
2:33 PM,39.2,32.0,75,29.88,10.0,West,19.6,25.3,N/A,,Clear,280,2013-12-27 20:33:00
2:53 PM,37.4,32.0,81,29.89,10.0,West,18.4,-,N/A,,Clear,280,2013-12-27 20:53:00
3:13 PM,37.4,32.0,81,29.89,10.0,West,16.1,-,N/A,,Clear,280,2013-12-27 21:13:00
3:33 PM,37.4,32.0,81,29.90,10.0,West,16.1,-,N/A,,Clear,280,2013-12-27 21:33:00
3:53 PM,37.4,32.0,81,29.90,10.0,West,13.8,-,N/A,,Clear,280,2013-12-27 21:53:00
4:13 PM,35.6,32.0,87,29.91,10.0,West,12.7,19.6,N/A,,Clear,280,2013-12-27 22:13:00
4:33 PM,35.6,32.0,87,29.91,10.0,West,12.7,-,N/A,,Clear,280,2013-12-27 22:33:00
4:53 PM,35.6,30.2,81,29.92,10.0,WNW,12.7,-,N/A,,Clear,290,2013-12-27 22:53:00
5:13 PM,35.6,32.0,87,29.93,10.0,West,11.5,-,N/A,,Mostly Cloudy,280,2013-12-27 23:13:00
5:33 PM,35.6,32.0,87,29.93,10.0,WNW,15.0,20.7,N/A,,Overcast,290,2013-12-27 23:33:00
5:53 PM,35.6,32.0,87,29.94,10.0,WNW,13.8,-,N/A,,Overcast,300,2013-12-27 23:53:00
6:13 PM,33.8,30.2,87,29.95,10.0,WNW,15.0,-,N/A,,Mostly Cloudy,300,2013-12-28 00:13:00
6:33 PM,33.8,30.2,87,29.95,10.0,WNW,11.5,-,N/A,,Scattered Clouds,290,2013-12-28 00:33:00
6:53 PM,32.0,30.2,93,29.95,10.0,WNW,11.5,-,N/A,,Clear,290,2013-12-28 00:53:00
7:13 PM,32.0,30.2,93,29.95,10.0,West,11.5,-,N/A,,Clear,280,2013-12-28 01:13:00
7:33 PM,32.0,30.2,93,29.95,10.0,West,9.2,-,N/A,,Clear,280,2013-12-28 01:33:00
7:53 PM,30.2,28.4,93,29.96,10.0,West,9.2,-,N/A,,Clear,260,2013-12-28 01:53:00
8:13 PM,28.4,28.4,100,29.96,10.0,West,8.1,-,N/A,,Clear,260,2013-12-28 02:13:00
8:33 PM,30.2,28.4,93,29.96,10.0,West,9.2,-,N/A,,Mostly Cloudy,280,2013-12-28 02:33:00
8:53 PM,30.2,30.2,100,29.96,10.0,West,9.2,-,N/A,,Overcast,280,2013-12-28 02:53:00
9:13 PM,32.0,30.2,93,29.95,10.0,West,8.1,-,N/A,,Overcast,270,2013-12-28 03:13:00
9:33 PM,32.0,30.2,93,29.96,10.0,West,10.4,-,N/A,,Overcast,270,2013-12-28 03:33:00
9:53 PM,32.0,30.2,93,29.95,10.0,West,9.2,-,N/A,,Overcast,280,2013-12-28 03:53:00
10:13 PM,32.0,30.2,93,29.96,10.0,West,9.2,-,N/A,,Overcast,280,2013-12-28 04:13:00
10:33 PM,32.0,30.2,93,29.95,10.0,WSW,4.6,-,N/A,,Overcast,250,2013-12-28 04:33:00
10:53 PM,32.0,30.2,93,29.94,10.0,Calm,Calm,-,N/A,,Overcast,0,2013-12-28 04:53:00
11:13 PM,32.0,30.2,93,29.94,10.0,Calm,Calm,-,N/A,,Overcast,0,2013-12-28 05:13:00
11:33 PM,32.0,30.2,93,29.93,7.0,Calm,Calm,-,N/A,,Overcast,0,2013-12-28 05:33:00
11:53 PM,32.0,30.2,93,29.93,7.0,Calm,Calm,-,N/A,,Overcast,0,2013-12-28 05:53:00